Wind_Speed
19 20 20 20 18 17 15 16 16 15 15 14 15 17 20 21 18 15 11 12 14 14 15 19 20 17 14 12 11 9 12 6 3 1 6 0 3 6 8 10 11 12 13 16 17
22 23 24 23 24 23 22 20 19 18 18 17 15 15 17 20 22 22 18 15 14 17 16 17 21 21 16 14 11 12 1 10 10 6 9 4 3 5 8 10 10 12 13 15 16
26 27 26 27 26 26 25 23 23 21 20 21 20 18 17 18 21 20 23 21 17 16 18 16 19 22 19 15 15 13 6 11 8 6 10 8 4 5 4 8 11 10 13 13 14
27 27 27 28 28 27 28 26 25 24 23 22 22 22 21 21 23 19 22 23 23 20 18 18 18 20 21 19 18 23 9 17 6 6 5 4 5 6 8 10 14 14 11 10 11
28 30 30 31 30 29 31 29 29 28 26 25 22 21 23 23 26 20 22 22 25 24 22 21 21 23 23 23 21 23 18 14 6 3 4 10 7 7 11 13 12 13 14 12 11
31 33 33 33 34 33 31 30 29 29 30 28 27 27 25 27 23 24 22 23 24 28 27 24 24 26 27 26 25 26 22 16 9 7 7 5 9 5 6 9 10 13 13 13 11
38 39 38 38 40 39 35 33 32 31 30 31 30 28 30 30 27 27 25 24 25 27 30 30 27 26 24 23 25 22 19 15 12 10 7 9 8 9 14 10 10 12 15 15 13
29 27 30 31 34 38 38 35 34 33 33 33 33 33 32 32 29 28 29 27 26 27 30 33 30 28 30 27 22 21 22 18 12 12 9 6 10 16 14 11 11 11 14 16 16
22 23 23 24 22 27 31 33 34 34 33 33 33 35 36 35 34 31 32 32 30 29 30 30 33 31 32 28 26 26 20 19 13 16 11 10 17 21 14 10 10 11 12 16 16
20 19 19 21 18 17 19 21 27 30 32 32 30 32 33 33 35 36 35 36 34 33 31 32 32 36 34 34 30 25 20 17 17 16 16 16 17 21 17 12 10 12 11 13 17
18 18 18 19 21 17 16 17 20 24 27 27 26 28 31 32 34 36 39 40 39 37 34 33 33 36 36 34 32 20 20 19 18 19 16 18 17 16 16 13 10 14 12 10 15
22 19 20 18 17 17 17 18 20 22 23 23 24 25 26 27 31 34 36 41 42 41 39 37 37 34 39 39 35 36 29 22 25 27 20 22 18 23 17 15 14 14 14 11 11
22 20 19 17 18 17 18 20 22 24 26 25 24 23 23 24 25 28 34 40 43 44 43 41 36 33 38 44 40 41 37 24 25 22 24 19 22 27 24 18 17 15 16 15 14
22 22 20 18 18 18 20 22 24 23 25 29 26 21 20 22 23 23 28 37 44 45 47 46 41 42 42 47 46 43 38 30 25 18 28 27 25 42 17 23 20 17 16 18 17
22 23 22 21 19 17 18 19 22 23 18 32 28 19 20 21 19 21 22 28 39 44 49 46 47 46 45 45 48 45 38 41 27 31 22 28 28 22 18 23 22 18 18 16 18
23 23 22 22 22 20 17 15 16 16 19 29 26 22 19 19 20 20 21 24 33 43 48 48 46 50 48 42 48 47 43 36 38 29 30 31 21 20 26 24 24 22 19 16 15
23 22 21 23 19 19 16 13 12 9 22 29 25 22 21 20 20 20 19 20 26 38 44 52 45 53 51 47 47 51 42 33 35 35 33 26 36 18 24 22 21 25 20 19 15
22 20 22 20 18 16 12 10 11 22 23 22 23 25 24 23 22 22 22 25 25 34 30 35 43 53 52 51 47 53 47 36 32 32 27 23 34 21 34 24 20 18 22 21 17
20 19 20 19 16 14 11 12 17 16 18 21 21 22 23 23 22 23 25 24 27 27 38 22 32 28 51 52 50 49 55 42 26 25 25 25 25 29 25 37 15 21 23 22 18
20 19 19 18 16 13 10 16 15 18 16 18 20 22 17 24 24 25 27 30 30 26 32 37 32 30 33 51 53 43 46 43 36 32 30 29 31 29 33 26 24 22 22 19 21
20 19 19 16 16 13 11 14 15 16 17 18 21 21 23 23 22 24 27 25 30 28 28 38 43 28 28 52 50 55 40 42 34 29 27 28 28 29 31 32 23 18 13 17 22
19 19 18 16 15 14 15 15 15 17 19 19 21 22 23 24 25 31 33 28 29 29 27 32 37 43 29 34 56 34 41 42 40 37 31 22 28 22 23 29 23 22 33 28 22
19 18 18 17 17 17 15 18 20 21 21 22 24 24 25 26 27 29 29 25 31 33 32 29 30 32 26 28 33 53 34 43 33 31 34 27 24 42 12 32 42 33 36 29 22
17 18 17 19 16 18 19 18 19 19 23 23 25 25 28 30 29 31 28 27 31 34 31 29 27 30 30 25 32 56 46 35 36 38 32 35 21 17 14 25 42 42 34 33 27
16 18 20 20 18 17 14 16 19 21 21 26 31 32 34 35 37 36 33 30 30 32 35 34 32 34 41 36 40 33 42 40 35 34 39 27 40 15 20 26 29 34 34 33 27
17 20 19 19 17 14 15 18 20 23 26 32 37 43 42 40 43 45 42 36 36 34 37 38 35 35 48 46 46 42 48 43 38 36 32 34 25 28 40 36 35 37 34 33 23
20 21 20 18 14 15 18 20 20 21 20 22 28 35 40 47 49 47 47 44 41 37 37 41 41 36 38 37 39 49 50 48 48 36 38 36 30 40 48 50 32 35 41 31 28
Wind_Direction
302 301 301 298 293 283 279 276 270 265 258 250 243 239 241 236 235 233 226 225 201 191 190 190 197 191 183 186 144 107 127 37 331 268 288 259 202 156 181 161 144 145 159 156 152
302 298 294 290 289 288 283 270 266 262 258 256 246 244 240 240 236 236 230 228 215 198 197 193 196 197 192 181 151 160 206 109 192 124 266 158 198 156 161 165 159 156 161 167 160
303 298 296 292 287 280 280 279 266 255 256 251 251 246 243 241 239 232 232 227 226 209 205 199 199 199 195 188 162 185 173 102 210 148 113 293 195 174 188 180 165 166 164 164 165
295 289 286 285 280 278 276 272 271 263 251 250 247 246 245 241 241 232 235 228 225 223 209 203 201 198 199 198 177 187 203 150 162 125 143 159 236 191 172 240 173 170 180 172 169
287 283 281 278 270 270 271 268 265 263 256 250 246 245 242 242 242 234 234 229 226 224 220 205 199 205 198 201 192 185 178 190 172 177 168 178 234 230 211 201 188 183 179 178 177
292 279 276 273 270 263 263 264 261 257 255 253 252 249 245 245 241 238 231 229 225 222 222 215 203 204 206 201 197 199 200 199 211 235 235 188 211 220 241 218 191 191 189 184 185
297 296 293 280 269 264 261 258 258 257 251 250 251 250 250 246 243 234 233 230 226 224 222 221 210 205 210 210 206 205 205 211 229 238 235 208 213 185 245 239 221 197 198 194 190
313 317 310 301 277 265 262 259 259 257 254 251 248 247 248 246 241 238 231 229 226 224 223 222 218 208 203 213 205 206 210 210 226 222 219 203 225 257 224 226 226 212 199 204 200
316 322 319 315 292 274 267 261 260 258 254 253 250 249 247 242 237 236 233 227 227 225 224 222 218 211 211 207 212 207 206 210 220 223 214 177 197 242 237 226 219 220 210 201 207
322 326 328 320 316 293 277 269 257 253 252 251 250 246 243 241 236 231 232 228 224 225 223 222 219 214 213 206 208 208 197 219 211 241 201 190 196 227 233 228 220 226 218 202 198
323 333 335 335 323 307 296 274 261 257 255 251 250 246 239 237 236 230 225 226 224 222 222 223 220 216 213 215 204 204 212 200 204 214 220 190 235 233 223 229 230 223 221 212 201
320 330 328 321 315 307 290 278 270 258 252 251 249 246 241 236 232 227 224 223 223 221 217 221 220 215 209 212 207 203 201 211 204 222 180 214 222 242 223 233 237 230 223 210 192
321 321 327 318 311 304 292 280 266 258 251 248 247 245 239 237 233 228 224 220 220 218 218 217 217 217 212 211 209 213 212 196 224 219 207 231 208 226 233 230 237 240 226 221 208
322 322 325 321 316 304 291 279 268 259 249 248 245 241 236 228 230 229 225 220 218 216 216 216 210 215 212 210 208 210 212 209 216 211 223 216 242 225 174 235 227 233 235 229 221
321 322 324 324 324 312 297 280 264 256 243 250 241 236 233 232 228 227 227 221 218 216 215 216 211 213 216 212 209 210 213 218 211 225 211 219 232 268 207 237 233 228 237 229 229
320 322 324 325 323 318 305 293 271 256 232 237 243 236 235 234 235 230 229 228 219 215 217 213 215 215 213 214 208 207 211 221 220 220 224 232 228 227 235 239 233 230 224 234 230
321 324 326 328 321 317 298 284 256 239 236 245 235 226 233 240 237 231 228 230 225 223 218 218 212 214 212 211 210 204 207 209 217 218 221 218 240 200 234 216 235 241 219 224 232
322 324 328 326 320 319 284 263 239 233 246 246 234 236 240 237 234 228 226 232 229 225 206 225 222 217 211 210 213 208 207 210 215 218 221 213 223 218 247 238 194 218 233 224 221
319 323 327 327 321 317 271 248 236 258 252 243 239 234 237 232 235 230 223 218 232 227 218 216 225 231 219 209 210 212 211 208 209 226 221 225 232 218 228 232 229 208 209 229 225
317 322 325 325 319 311 292 254 255 252 250 241 235 230 230 239 236 237 233 231 229 227 221 212 199 210 222 214 211 205 215 207 205 210 221 219 228 224 231 218 219 219 226 228 236
315 319 322 318 312 301 285 273 261 254 247 242 240 240 238 243 230 230 241 226 226 224 226 220 216 201 219 210 209 210 204 212 211 208 208 212 238 199 238 216 205 210 237 245 231
313 314 318 315 309 295 278 272 267 261 256 251 247 243 241 240 231 235 240 236 227 221 221 224 219 213 219 213 212 210 217 212 208 207 199 202 218 219 216 212 184 207 215 218 214
314 317 316 314 308 297 282 274 271 268 264 257 252 247 242 239 233 234 238 237 229 224 221 223 220 213 205 221 215 213 210 216 212 201 215 202 235 225 183 214 194 208 211 210 219
315 320 313 313 306 297 294 286 282 274 270 259 256 252 246 242 235 236 238 234 230 227 222 215 213 190 207 216 215 214 209 208 210 210 205 214 208 216 208 218 213 211 216 214 218
315 318 314 311 307 299 289 292 292 288 276 268 267 260 251 244 238 235 232 232 231 225 222 215 215 201 188 211 205 192 221 211 206 205 207 203 200 222 233 228 219 211 210 212 212
315 318 313 311 308 300 302 298 293 290 281 274 266 260 256 244 236 230 229 229 226 222 219 217 213 212 202 201 206 209 205 197 214 208 198 202 209 219 241 237 215 211 210 207 202
307 316 315 314 304 313 315 312 308 301 296 310 306 277 252 240 234 232 231 229 225 222 219 216 213 213 209 210 208 218 215 212 207 209 204 194 195 204 218 222 219 214 208 194 193
Height
5881 5880 5879 5877 5876 5875 5875 5875 5875 5875 5874 5875 5875 5876 5877 5880 5882 5883 5885 5887 5890 5892 5893 5895 5898 5900 5903 5905 5908 5912 5909 5910 5913 5912 5912 5909 5908 5908 5909 5907 5908 5908 5909 5910 5909
5877 5875 5874 5873 5871 5871 5870 5870 5870 5871 5871 5872 5872 5873 5874 5875 5877 5880 5883 5884 5886 5889 5891 5894 5896 5899 5902 5906 5910 5910 5902 5911 5915 5914 5914 5910 5909 5908 5909 5908 5909 5910 5910 5911 5911
5872 5869 5868 5867 5865 5864 5864 5864 5864 5865 5866 5867 5868 5869 5870 5871 5872 5876 5879 5881 5883 5887 5889 5892 5894 5898 5901 5904 5908 5908 5903 5912 5913 5911 5914 5913 5910 5910 5915 5910 5910 5912 5912 5913 5913
5866 5863 5861 5859 5858 5857 5857 5857 5858 5859 5860 5861 5863 5864 5866 5867 5869 5872 5873 5877 5880 5883 5887 5890 5892 5895 5898 5901 5906 5907 5903 5910 5911 5911 5914 5914 5912 5911 5911 5913 5911 5912 5914 5915 5915
5858 5855 5853 5851 5849 5849 5849 5849 5850 5851 5853 5855 5857 5858 5860 5863 5863 5867 5869 5872 5876 5879 5883 5886 5889 5892 5896 5898 5903 5905 5908 5908 5910 5911 5913 5915 5914 5912 5912 5912 5913 5913 5914 5915 5917
5849 5846 5843 5841 5840 5839 5840 5840 5841 5843 5845 5848 5851 5852 5854 5856 5861 5863 5866 5868 5872 5875 5879 5883 5887 5889 5891 5895 5900 5902 5904 5907 5909 5911 5912 5914 5915 5913 5914 5914 5913 5913 5916 5916 5917
5840 5837 5834 5831 5829 5829 5829 5832 5832 5834 5837 5839 5842 5845 5847 5849 5853 5857 5861 5864 5868 5871 5874 5878 5883 5887 5891 5894 5897 5902 5905 5907 5909 5910 5911 5913 5916 5913 5914 5915 5915 5914 5915 5917 5918
5831 5828 5824 5820 5817 5819 5820 5821 5823 5826 5828 5830 5833 5836 5839 5843 5846 5850 5855 5859 5862 5866 5869 5873 5879 5884 5887 5890 5896 5900 5904 5907 5910 5910 5912 5914 5920 5913 5914 5915 5915 5916 5915 5917 5919
5825 5821 5817 5813 5809 5810 5811 5813 5815 5817 5820 5822 5824 5827 5830 5833 5839 5844 5848 5852 5856 5860 5864 5869 5874 5880 5884 5889 5893 5897 5903 5907 5911 5912 5915 5914 5915 5915 5914 5912 5914 5915 5915 5916 5919
5820 5816 5812 5809 5806 5805 5805 5806 5807 5810 5812 5813 5816 5819 5822 5825 5830 5835 5840 5844 5850 5854 5859 5863 5869 5875 5880 5884 5889 5896 5902 5910 5912 5910 5911 5912 5913 5911 5913 5911 5913 5915 5916 5916 5917
5815 5812 5808 5805 5803 5802 5801 5800 5802 5803 5804 5806 5809 5810 5812 5816 5820 5825 5831 5835 5841 5847 5853 5858 5863 5869 5877 5882 5889 5896 5901 5906 5909 5910 5911 5915 5909 5907 5911 5911 5912 5914 5916 5916 5917
5812 5808 5805 5802 5798 5798 5797 5796 5795 5797 5798 5799 5802 5804 5806 5808 5812 5815 5821 5827 5832 5839 5846 5852 5857 5864 5870 5876 5884 5886 5892 5899 5903 5904 5908 5910 5912 5911 5911 5912 5912 5914 5915 5917 5917
5807 5804 5801 5798 5795 5792 5792 5792 5791 5791 5792 5794 5795 5797 5800 5803 5805 5808 5812 5817 5823 5830 5837 5844 5854 5859 5863 5869 5876 5881 5887 5895 5899 5901 5904 5905 5910 5912 5912 5911 5911 5912 5915 5916 5918
5802 5798 5795 5793 5791 5788 5786 5785 5784 5785 5787 5786 5789 5792 5795 5796 5799 5801 5804 5809 5815 5822 5828 5836 5845 5849 5853 5860 5868 5875 5883 5890 5897 5896 5902 5904 5905 5903 5887 5910 5910 5910 5913 5915 5917
5796 5793 5790 5786 5784 5783 5781 5779 5778 5779 5785 5778 5783 5788 5790 5792 5795 5796 5798 5802 5807 5814 5821 5828 5835 5840 5847 5855 5863 5871 5878 5883 5890 5894 5900 5900 5905 5897 5905 5910 5907 5909 5911 5913 5915
5791 5787 5785 5782 5779 5776 5774 5773 5773 5776 5777 5774 5778 5782 5785 5786 5788 5791 5793 5796 5799 5804 5811 5819 5826 5832 5840 5849 5856 5865 5872 5877 5882 5889 5893 5894 5900 5905 5903 5906 5906 5907 5908 5911 5913
5786 5782 5779 5776 5774 5770 5769 5769 5771 5772 5771 5769 5773 5777 5779 5781 5783 5785 5788 5790 5795 5800 5805 5810 5816 5824 5831 5840 5847 5856 5863 5869 5875 5880 5886 5896 5895 5900 5897 5895 5906 5905 5906 5908 5911
5780 5777 5774 5771 5769 5766 5765 5766 5767 5765 5765 5767 5769 5772 5774 5776 5777 5780 5783 5785 5787 5791 5799 5805 5810 5815 5826 5833 5843 5849 5857 5865 5871 5878 5886 5890 5893 5898 5891 5892 5898 5904 5905 5907 5909
5775 5772 5769 5766 5764 5762 5762 5763 5763 5760 5761 5763 5765 5767 5768 5770 5773 5775 5778 5781 5781 5785 5791 5802 5806 5813 5817 5827 5834 5842 5847 5863 5874 5880 5884 5889 5891 5894 5892 5891 5894 5899 5905 5905 5907
5770 5767 5764 5761 5759 5758 5758 5757 5756 5757 5757 5758 5760 5762 5765 5764 5767 5769 5770 5772 5776 5780 5784 5788 5796 5807 5809 5817 5826 5833 5847 5852 5860 5870 5878 5884 5885 5889 5887 5889 5893 5897 5901 5903 5905
5766 5763 5760 5757 5755 5754 5754 5752 5752 5752 5752 5754 5754 5756 5757 5759 5762 5763 5765 5766 5769 5774 5778 5782 5790 5802 5803 5807 5818 5827 5832 5842 5857 5866 5873 5879 5880 5882 5882 5887 5892 5897 5901 5901 5902
5760 5758 5755 5753 5752 5749 5749 5748 5747 5747 5747 5747 5748 5749 5751 5751 5754 5756 5756 5757 5763 5768 5771 5774 5781 5790 5801 5805 5811 5820 5828 5835 5846 5856 5865 5873 5880 5871 5870 5881 5888 5894 5890 5893 5898
5755 5753 5750 5748 5746 5744 5743 5742 5741 5740 5740 5741 5740 5742 5743 5744 5746 5747 5748 5752 5756 5760 5763 5768 5775 5786 5796 5802 5803 5809 5820 5827 5839 5852 5857 5866 5867 5868 5866 5874 5877 5873 5881 5890 5895
5750 5748 5746 5742 5740 5738 5736 5734 5733 5733 5732 5732 5732 5734 5734 5735 5737 5738 5741 5744 5748 5752 5759 5763 5769 5776 5792 5800 5800 5802 5809 5819 5830 5841 5852 5859 5869 5863 5863 5867 5873 5874 5880 5884 5890
5745 5743 5739 5737 5735 5732 5731 5729 5727 5725 5725 5723 5723 5724 5724 5725 5726 5728 5731 5735 5739 5745 5751 5757 5761 5769 5773 5775 5784 5791 5802 5812 5820 5834 5843 5856 5860 5865 5858 5862 5866 5872 5876 5879 5884
5741 5738 5735 5731 5729 5727 5725 5723 5719 5716 5713 5710 5708 5706 5708 5711 5711 5714 5719 5725 5729 5735 5741 5748 5754 5759 5763 5769 5779 5785 5790 5800 5813 5822 5833 5845 5857 5863 5850 5853 5860 5868 5872 5876 5879
5734 5732 5729 5726 5723 5721 5719 5715 5711 5706 5702 5698 5692 5687 5685 5686 5694 5700 5707 5713 5719 5726 5732 5739 5747 5753 5760 5769 5774 5778 5784 5793 5801 5812 5823 5833 5844 5842 5842 5844 5856 5860 5865 5869 5875